South Haven, MI

2:16 AM EST on February 06, 2016 (GMT -0500)
South Haven

Weather History for KLWA - October, 2012

Change the Weather History Date:

Tuesday, October 2, 2012

  Actual Average (KBIV) Record (KBIV)
Temperature  
Mean Temperature 60 °F 57 °F  
Max Temperature 72 °F 67 °F 86 °F (1971)
Min Temperature 49 °F 47 °F 32 °F (1975)
Degree Days  
Heating Degree Days 4 9  
Month to date heating degree days 17  
Since 1 July heating degree days 147  
Cooling Degree Days 0 1  
Month to date cooling degree days 2  
Year to date cooling degree days 684  
Growing Degree Days 10 (Base 50)    
Moisture  
Dew Point 50 °F    
Average Humidity 69    
Maximum Humidity 92    
Minimum Humidity 35    
Precipitation  
Precipitation 0.00 in 0.10 in 0.91 in (2006)
Month to date precipitation 0.20  
Year to date precipitation 27.31  
Sea Level Pressure  
Sea Level Pressure 29.86 in    
Wind  
Wind Speed 4 mph (NE)    
Max Wind Speed 14 mph    
Max Gust Speed 18 mph    
Visibility 10 miles    
Events Rain    
T = Trace of Precipitation, MM = Missing Value Source: NWS Daily Summary

Daily Weather History Graph

Daily Weather History Graph

Search for Another Location

Airport or City:

Trip Planner

Search our weather history database for the weather conditions in past years. The results will help you decide how hot, cold, wet, or windy it might be!

Date:

Astronomy

Oct. 02, 2012 Rise Set
Actual Time 7:43 AM EDT 7:23 PM EDT
Civil Twilight 7:15 AM EDT 7:51 PM EDT
Nautical Twilight 6:43 AM EDT 8:24 PM EDT
Astronomical Twilight 6:10 AM EDT 8:57 PM EDT
Moon 8:32 PM EDT (10/2) 10:14 AM EDT (10/2)
Length of Visible Light 12h 36m
Length of Day
11h 40m
Waning Gibbous, 94% of the Moon is Illuminated
Oct 2
Waning Gibbous
Oct 8
Last Quarter
Oct 15
New
Oct 21
First Quarter
Oct 29
Full

Hourly Weather History & Observations

Time (EDT) Temp. Dew Point Humidity Pressure Visibility Wind Dir Wind Speed Gust Speed Precip Events Conditions
12:15 AM 54.7 °F 50.2 °F 85% 29.84 in 10.0 mi NE 4.6 mph - N/A   Clear
12:35 AM 54.9 °F 50.4 °F 85% 29.84 in 10.0 mi Calm Calm - N/A   Clear
12:55 AM 55.2 °F 50.2 °F 83% 29.83 in 10.0 mi North 4.6 mph - N/A   Clear
1:15 AM 55.4 °F 50.4 °F 83% 29.82 in 10.0 mi NNE 4.6 mph - N/A   Clear
1:35 AM 55.6 °F 50.4 °F 83% 29.82 in 10.0 mi NE 4.6 mph - N/A   Clear
1:55 AM 54.9 °F 50.0 °F 84% 29.82 in 10.0 mi NE 4.6 mph - N/A   Clear
2:15 AM 54.5 °F 49.3 °F 83% 29.83 in 10.0 mi Calm Calm - N/A   Clear
2:55 AM 53.8 °F 49.5 °F 85% 29.83 in 10.0 mi Calm Calm - N/A   Clear
3:15 AM 53.6 °F 49.6 °F 86% 29.82 in 10.0 mi Calm Calm - N/A   Clear
3:35 AM 52.9 °F 49.3 °F 88% 29.82 in 10.0 mi Calm Calm - N/A   Clear
4:15 AM 52.3 °F 49.3 °F 89% 29.82 in 10.0 mi Calm Calm - N/A   Clear
4:35 AM 51.4 °F 49.1 °F 92% 29.82 in 10.0 mi NNE 4.6 mph - N/A   Clear
4:55 AM 52.3 °F 49.1 °F 89% 29.83 in 10.0 mi Calm Calm - N/A   Clear
5:15 AM 51.8 °F 48.4 °F 88% 29.84 in 10.0 mi ENE 3.5 mph - N/A   Clear
5:35 AM 50.9 °F 47.7 °F 89% 29.83 in 10.0 mi NE 4.6 mph - N/A   Clear
5:55 AM 54.0 °F 47.7 °F 79% 29.83 in 10.0 mi East 5.8 mph - N/A   Clear
6:35 AM 52.5 °F 48.7 °F 87% 29.84 in 10.0 mi NE 4.6 mph - N/A   Clear
6:55 AM 52.3 °F 48.4 °F 86% 29.85 in 10.0 mi ENE 4.6 mph - N/A   Clear
7:15 AM 52.5 °F 47.8 °F 84% 29.86 in 10.0 mi Calm Calm - N/A   Clear
7:35 AM 50.9 °F 47.5 °F 88% 29.86 in 10.0 mi ENE 3.5 mph - N/A   Clear
7:54 AM 51.8 °F 47.7 °F 86% 29.86 in 10.0 mi ENE 5.8 mph - N/A   Clear
8:15 AM 49.6 °F 47.1 °F 91% 29.87 in 10.0 mi East 3.5 mph - N/A   Clear
8:35 AM 50.4 °F 47.5 °F 90% 29.87 in 10.0 mi East 4.6 mph - N/A   Clear
8:55 AM 52.7 °F 48.2 °F 85% 29.87 in 10.0 mi ENE 3.5 mph - N/A   Clear
9:15 AM 55.6 °F 48.7 °F 78% 29.88 in 10.0 mi ENE 4.6 mph - N/A   Clear
9:35 AM 58.1 °F 49.3 °F 72% 29.88 in 10.0 mi Calm Calm - N/A   Clear
9:55 AM 59.9 °F 49.3 °F 68% 29.88 in 10.0 mi ENE 5.8 mph - N/A   Clear
10:15 AM 61.7 °F 48.0 °F 61% 29.88 in 10.0 mi ENE 6.9 mph - N/A   Clear
10:35 AM 62.6 °F 48.2 °F 59% 29.88 in 10.0 mi NE 9.2 mph - N/A   Clear
10:55 AM 64.2 °F 48.4 °F 56% 29.88 in 10.0 mi East 5.8 mph - N/A   Clear
11:15 AM 65.1 °F 47.3 °F 52% 29.88 in 10.0 mi ENE 9.2 mph - N/A   Clear
11:35 AM 66.0 °F 46.9 °F 50% 29.87 in 10.0 mi ENE 6.9 mph - N/A   Clear
11:55 AM 67.5 °F 47.5 °F 49% 29.87 in 10.0 mi East 9.2 mph 16.1 mph N/A   Clear
12:15 PM 67.5 °F 46.6 °F 47% 29.87 in 10.0 mi NE 11.5 mph - N/A   Clear
12:35 PM 68.2 °F 46.6 °F 46% 29.87 in 10.0 mi NE 8.1 mph 16.1 mph N/A   Clear
12:55 PM 68.9 °F 45.3 °F 43% 29.87 in 10.0 mi NE 10.4 mph 18.4 mph N/A   Clear
1:15 PM 69.3 °F 45.0 °F 42% 29.87 in 10.0 mi NE 9.2 mph 18.4 mph N/A   Clear
1:34 PM 70.2 °F 45.5 °F 41% 29.86 in 10.0 mi ENE 8.1 mph - N/A   Clear
1:55 PM 70.5 °F 45.3 °F 40% 29.85 in 10.0 mi NE 10.4 mph - N/A   Clear
2:15 PM 71.1 °F 45.7 °F 40% 29.85 in 10.0 mi NE 10.4 mph - N/A   Clear
2:35 PM 70.3 °F 43.9 °F 38% 29.85 in 10.0 mi NE 9.2 mph - N/A   Clear
2:55 PM 71.8 °F 45.1 °F 38% 29.85 in 10.0 mi ENE 6.9 mph 16.1 mph N/A   Clear
3:15 PM 71.4 °F 43.7 °F 37% 29.84 in 10.0 mi ENE 9.2 mph - N/A   Clear
3:35 PM 72.5 °F 43.0 °F 35% 29.84 in 10.0 mi NNE 9.2 mph - N/A   Clear
3:55 PM 68.9 °F 52.3 °F 55% 29.84 in 10.0 mi North 10.4 mph 18.4 mph N/A   Clear
4:14 PM 69.6 °F 52.0 °F 53% 29.84 in 10.0 mi NNW 13.8 mph - N/A   Clear
4:35 PM 69.6 °F 51.8 °F 53% 29.84 in 10.0 mi NNW 12.7 mph - N/A   Clear
4:55 PM 68.9 °F 53.6 °F 58% 29.84 in 10.0 mi North 12.7 mph 16.1 mph N/A   Clear
5:15 PM 68.5 °F 53.4 °F 58% 29.84 in 10.0 mi NNW 5.8 mph - N/A   Clear
5:35 PM 67.3 °F 54.1 °F 63% 29.84 in 10.0 mi NNW 8.1 mph - N/A   Clear
5:55 PM 66.7 °F 54.5 °F 65% 29.84 in 10.0 mi North 5.8 mph - N/A   Clear
6:15 PM 65.8 °F 55.2 °F 69% 29.84 in 10.0 mi North 4.6 mph - N/A   Mostly Cloudy
6:35 PM 65.7 °F 55.8 °F 70% 29.85 in 10.0 mi Calm Calm - N/A   Overcast
6:55 PM 65.3 °F 56.5 °F 73% 29.85 in 10.0 mi North 3.5 mph - N/A   Overcast
7:15 PM 64.6 °F 56.5 °F 75% 29.86 in 10.0 mi Calm Calm - N/A   Overcast
7:35 PM 64.2 °F 56.7 °F 76% 29.86 in 10.0 mi Calm Calm - N/A   Overcast
7:55 PM 64.0 °F 57.0 °F 78% 29.87 in 10.0 mi Calm Calm - N/A   Overcast
8:15 PM 63.5 °F 57.2 °F 80% 29.88 in 10.0 mi Calm Calm - N/A   Overcast
8:35 PM 63.5 °F 57.4 °F 80% 29.88 in 10.0 mi Calm Calm - N/A   Overcast
8:55 PM 63.1 °F 57.6 °F 82% 29.88 in 10.0 mi Calm Calm - N/A   Overcast
9:15 PM 63.1 °F 57.4 °F 81% 29.89 in 10.0 mi Calm Calm - N/A   Overcast
9:35 PM 63.7 °F 54.3 °F 72% 29.90 in 10.0 mi Calm Calm - N/A   Overcast
9:55 PM 64.6 °F 51.3 °F 62% 29.90 in 10.0 mi Calm Calm - N/A   Overcast
10:15 PM 64.8 °F 49.5 °F 58% 29.90 in 10.0 mi Calm Calm - N/A   Overcast
10:35 PM 64.4 °F 48.7 °F 57% 29.90 in 10.0 mi Calm Calm - N/A   Overcast
10:55 PM 64.0 °F 48.6 °F 57% 29.90 in 10.0 mi Calm Calm - N/A   Overcast
11:15 PM 63.0 °F 49.6 °F 62% 29.90 in 10.0 mi Calm Calm - N/A   Overcast
11:34 PM 62.8 °F 50.0 °F 63% 29.91 in 10.0 mi Calm Calm - N/A Rain Rain
11:55 PM 59.2 °F 55.4 °F 87% 29.91 in 10.0 mi Calm Calm - N/A   Overcast